Location: Unspecified
(0.0000°N, 0.0000°E)
Time: 11:07:34
(UTC+00:00)

CAS-4A - Visible Passes

Search period start: 15 December 2019 00:00
Search period end: 25 December 2019 00:00
Orbit: 528 x 546 km, 43.0° (Epoch: 15 December)

Date Brightness Start Highest point End Pass type
(mag) Time Alt. Az. Time Alt. Az. Time Alt. Az.
15 Dec ? 03:29:49 18° E 03:29:49 18° E 03:31:10 10° ESE visible
15 Dec ? 05:05:11 12° W 05:07:27 17° SW 05:10:13 10° S visible
16 Dec ? 03:20:25 15° ESE 03:20:25 15° ESE 03:21:10 10° ESE visible
16 Dec ? 04:55:48 10° WSW 04:57:14 12° SW 04:58:51 10° SSW visible
17 Dec ? 03:10:58 10° SE 03:10:58 10° SE 03:11:01 10° SE visible
